• en Belgique
  • Liste des pays
  • À 7 jours
  • Température de l'eau
  • Carte satellitaire
  • Carte météo
  • Widgets météo
  • user-avatar
    Se connecter

    Météo par heure à Namur

    Ce jour, 18 Octobre, Jeudi

    Heure Température Précipitation Vent Pression Humidité
    00:00 +13°C° 0 mm 2 m/s 755 mmHg 93%
    01:00 +13°C° 0 mm 2 m/s 755 mmHg 93%
    02:00 +12°C° 0 mm 2 m/s 755 mmHg 93%
    03:00 +11°C° 0 mm 3 m/s 755 mmHg 93%
    04:00 +11°C° 0 mm 3 m/s 756 mmHg 94%
    05:00 +11°C° 0 mm 3 m/s 756 mmHg 94%
    06:00 +11°C° 0 mm 3 m/s 756 mmHg 95%
    07:00 +12°C° 0 mm 3 m/s 756 mmHg 91%
    08:00 +13°C° 0 mm 3 m/s 756 mmHg 88%
    09:00 +14°C° 0 mm 4 m/s 756 mmHg 84%
    10:00 +15°C° 0 mm 4 m/s 756 mmHg 80%
    11:00 +15°C° 0 mm 4 m/s 756 mmHg 77%
    12:00 +17°C° 0 mm 4 m/s 756 mmHg 73%
    13:00 +17°C° 0 mm 4 m/s 756 mmHg 73%
    14:00 +17°C° 0 mm 4 m/s 756 mmHg 73%
    15:00 +17°C° 0 mm 4 m/s 756 mmHg 73%
    16:00 +15°C° 0 mm 4 m/s 756 mmHg 78%
    17:00 +14°C° 0 mm 4 m/s 756 mmHg 82%
    18:00 +12°C° 0 mm 3 m/s 756 mmHg 87%
    19:00 +12°C° 0 mm 3 m/s 756 mmHg 88%
    20:00 +11°C° 0 mm 3 m/s 757 mmHg 90%
    21:00 +11°C° 0 mm 3 m/s 757 mmHg 91%
    22:00 +11°C° 0 mm 3 m/s 757 mmHg 92%
    23:00 +10°C° 0 mm 3 m/s 757 mmHg 93%

    Demain, 19 Octobre, Vendredi

    Heure Température Précipitation Vent Pression Humidité
    00:00 +10°C° 0 mm 2 m/s 757 mmHg 94%
    01:00 +9°C° 0 mm 2 m/s 757 mmHg 95%
    02:00 +9°C° 0 mm 2 m/s 757 mmHg 95%
    03:00 +9°C° 0 mm 2 m/s 757 mmHg 96%
    04:00 +9°C° 0 mm 2 m/s 757 mmHg 96%
    05:00 +8°C° 0 mm 2 m/s 757 mmHg 96%
    06:00 +8°C° 0 mm 2 m/s 757 mmHg 96%
    07:00 +10°C° 0 mm 2 m/s 757 mmHg 91%
    08:00 +12°C° 0 mm 2 m/s 758 mmHg 85%
    09:00 +14°C° 0 mm 2 m/s 758 mmHg 80%
    10:00 +15°C° 0 mm 2 m/s 758 mmHg 74%
    11:00 +17°C° 0 mm 2 m/s 758 mmHg 69%
    12:00 +18°C° 0 mm 2 m/s 758 mmHg 63%
    13:00 +18°C° 0 mm 2 m/s 758 mmHg 64%
    14:00 +18°C° 0 mm 2 m/s 758 mmHg 65%
    15:00 +18°C° 0 mm 3 m/s 757 mmHg 66%
    16:00 +16°C° 0 mm 2 m/s 758 mmHg 72%
    17:00 +14°C° 0 mm 2 m/s 758 mmHg 79%
    18:00 +13°C° 0 mm 2 m/s 758 mmHg 85%
    19:00 +12°C° 0 mm 2 m/s 759 mmHg 86%
    20:00 +10°C° 0 mm 2 m/s 759 mmHg 87%
    21:00 +10°C° 0 mm 2 m/s 759 mmHg 89%
    22:00 +9°C° 0 mm 2 m/s 759 mmHg 89%
    23:00 +9°C° 0 mm 2 m/s 760 mmHg 90%

    Après-demain, 20 Octobre, Samedi

    Heure Température Précipitation Vent Pression Humidité
    00:00 +9°C° 0 mm 2 m/s 760 mmHg 91%
    01:00 +8°C° 0 mm 2 m/s 760 mmHg 92%
    02:00 +9°C° 0 mm 1 m/s 760 mmHg 92%
    03:00 +9°C° 0 mm 1 m/s 760 mmHg 92%
    04:00 +8°C° 0 mm 1 m/s 761 mmHg 93%
    05:00 +8°C° 0 mm 1 m/s 761 mmHg 93%
    06:00 +8°C° 0 mm 1 m/s 761 mmHg 93%
    07:00 +8°C° 0 mm 2 m/s 762 mmHg 88%
    08:00 +10°C° 0 mm 2 m/s 762 mmHg 82%
    09:00 +13°C° 0 mm 2 m/s 762 mmHg 76%
    10:00 +14°C° 0 mm 2 m/s 762 mmHg 69%
    11:00 +15°C° 0 mm 2 m/s 762 mmHg 62%
    12:00 +17°C° 0 mm 3 m/s 763 mmHg 55%
    13:00 +17°C° 0 mm 2 m/s 762 mmHg 56%
    14:00 +17°C° 0 mm 2 m/s 762 mmHg 57%
    15:00 +16°C° 0 mm 2 m/s 762 mmHg 57%
    16:00 +15°C° 0 mm 2 m/s 762 mmHg 63%
    17:00 +13°C° 0 mm 2 m/s 762 mmHg 69%
    18:00 +10°C° 0 mm 2 m/s 762 mmHg 74%
    19:00 +9°C° 0 mm 2 m/s 763 mmHg 75%
    20:00 +8°C° 0 mm 2 m/s 763 mmHg 77%
    21:00 +9°C° 0 mm 1 m/s 763 mmHg 78%
    22:00 +9°C° 0 mm 1 m/s 763 mmHg 78%
    23:00 +8°C° 0 mm 1 m/s 763 mmHg 78%

    21 Octobre, Dimanche

    Heure Température Précipitation Vent Pression Humidité
    00:00 +8°C° 0 mm 1 m/s 763 mmHg 79%
    01:00 +8°C° 0 mm 1 m/s 762 mmHg 79%
    02:00 +8°C° 0 mm 1 m/s 762 mmHg 78%
    03:00 +7°C° 0 mm 1 m/s 762 mmHg 78%
    04:00 +7°C° 0 mm 1 m/s 762 mmHg 78%
    05:00 +7°C° 0 mm 1 m/s 762 mmHg 77%
    06:00 +7°C° 0 mm 1 m/s 762 mmHg 77%
    07:00 +9°C° 0 mm 1 m/s 762 mmHg 70%
    08:00 +11°C° 0 mm 1 m/s 762 mmHg 63%
    09:00 +14°C° 0 mm 1 m/s 762 mmHg 56%
    10:00 +15°C° 0 mm 1 m/s 761 mmHg 52%
    11:00 +16°C° 0 mm 0 m/s 761 mmHg 48%
    12:00 +18°C° 0 mm 0 m/s 761 mmHg 44%
    13:00 +17°C° 0 mm 0 m/s 760 mmHg 46%
    14:00 +19°C° 0 mm 1 m/s 760 mmHg 49%
    15:00 +19°C° 0 mm 1 m/s 760 mmHg 52%
    16:00 +16°C° 0 mm 1 m/s 760 mmHg 57%
    17:00 +14°C° 0 mm 1 m/s 760 mmHg 62%
    18:00 +11°C° 0 mm 1 m/s 760 mmHg 67%
    19:00 +11°C° 0 mm 1 m/s 760 mmHg 69%
    20:00 +9°C° 0 mm 0 m/s 760 mmHg 71%
    21:00 +9°C° 0 mm 0 m/s 760 mmHg 73%
    22:00 +9°C° 0 mm 0 m/s 760 mmHg 73%
    23:00 +8°C° 0 mm 0 m/s 760 mmHg 73%

    22 Octobre, Lundi

    Heure Température Précipitation Vent Pression Humidité
    00:00 +8°C° 0 mm 0 m/s 760 mmHg 73%
    01:00 +9°C° 0 mm 1 m/s 760 mmHg 73%
    02:00 +9°C° 0 mm 1 m/s 760 mmHg 73%
    03:00 +9°C° 0 mm 1 m/s 760 mmHg 72%
    04:00 +9°C° 0 mm 1 m/s 761 mmHg 73%
    05:00 +9°C° 0 mm 1 m/s 761 mmHg 74%
    06:00 +9°C° 0 mm 1 m/s 761 mmHg 75%
    07:00 +9°C° 0.1 mm 2 m/s 761 mmHg 77%
    08:00 +11°C° 0.1 mm 3 m/s 762 mmHg 80%
    09:00 +12°C° 0.1 mm 4 m/s 762 mmHg 83%
    10:00 +12°C° 0.1 mm 4 m/s 762 mmHg 83%
    11:00 +12°C° 0.1 mm 4 m/s 763 mmHg 83%
    12:00 +12°C° 0.1 mm 4 m/s 763 mmHg 83%
    13:00 +12°C° 0 mm 4 m/s 763 mmHg 79%
    14:00 +13°C° 0 mm 4 m/s 763 mmHg 75%
    15:00 +13°C° 0 mm 4 m/s 763 mmHg 70%
    16:00 +12°C° 0 mm 4 m/s 763 mmHg 73%
    17:00 +10°C° 0 mm 4 m/s 763 mmHg 76%
    18:00 +9°C° 0 mm 3 m/s 764 mmHg 79%
    19:00 +8°C° 0 mm 3 m/s 764 mmHg 80%
    20:00 +7°C° 0 mm 2 m/s 764 mmHg 81%
    21:00 +6°C° 0 mm 2 m/s 764 mmHg 82%
    22:00 +6°C° 0 mm 2 m/s 764 mmHg 83%
    23:00 +7°C° 0 mm 1 m/s 764 mmHg 84%

    23 Octobre, Mardi

    Heure Température Précipitation Vent Pression Humidité
    00:00 +7°C° 0 mm 1 m/s 763 mmHg 85%
    01:00 +7°C° 0 mm 1 m/s 763 mmHg 86%
    02:00 +7°C° 0 mm 1 m/s 762 mmHg 86%
    03:00 +6°C° 0 mm 2 m/s 762 mmHg 87%
    04:00 +6°C° 0 mm 2 m/s 762 mmHg 87%
    05:00 +6°C° 0 mm 2 m/s 761 mmHg 87%
    06:00 +7°C° 0 mm 2 m/s 760 mmHg 88%
    07:00 +8°C° 0.1 mm 3 m/s 760 mmHg 86%
    08:00 +8°C° 0.1 mm 4 m/s 760 mmHg 85%
    09:00 +10°C° 0.1 mm 4 m/s 759 mmHg 84%
    10:00 +9°C° 0.5 mm 5 m/s 759 mmHg 86%
    11:00 +9°C° 0.5 mm 5 m/s 758 mmHg 88%
    12:00 +9°C° 0.5 mm 5 m/s 758 mmHg 89%
    13:00 +10°C° 0.3 mm 5 m/s 757 mmHg 89%
    14:00 +11°C° 0.3 mm 4 m/s 757 mmHg 88%
    15:00 +11°C° 0.3 mm 4 m/s 757 mmHg 87%
    16:00 +10°C° 0.1 mm 4 m/s 757 mmHg 89%
    17:00 +10°C° 0.1 mm 3 m/s 757 mmHg 90%
    18:00 +9°C° 0.1 mm 3 m/s 757 mmHg 92%
    19:00 +9°C° 0.1 mm 2 m/s 757 mmHg 91%
    20:00 +8°C° 0.1 mm 2 m/s 758 mmHg 91%
    21:00 +8°C° 0.1 mm 2 m/s 758 mmHg 90%
    22:00 +8°C° 0 mm 2 m/s 758 mmHg 89%
    23:00 +8°C° 0 mm 1 m/s 758 mmHg 88%
    Voir plus